This is the latest recevied weather packets stored in our database for station/object N5SRF. If no packets are shown the sender has not sent any weather packets the latest 10 day(s).
| Time | Temp. | Humidity | Pressure | Rain* | Wind** | Luminosity | Snow |
|---|---|---|---|---|---|---|---|
| 1777931928 | 26.67° C | 65% | 1015.2 hPa | 0 mm | - | 186 W/m² | - |
| 1777931624 | 26.67° C | 62% | 1015.1 hPa | 0 mm | - | 472 W/m² | - |
| 1777931321 | 26.67° C | 59% | 1015.2 hPa | 0 mm | - | 350 W/m² | - |
| 1777931018 | 27.22° C | 60% | 1015.4 hPa | 0 mm | - | 364 W/m² | - |
| 1777930714 | 27.22° C | 60% | 1015.2 hPa | 0 mm | - | 409 W/m² | - |
| 1777930410 | 27.78° C | 59% | 1015.4 hPa | 0 mm | - | 156 W/m² | - |
| 1777930108 | 28.33° C | 57% | 1015.3 hPa | 0 mm | - | 533 W/m² | - |
| 1777929803 | 27.78° C | 61% | 1015.3 hPa | 0 mm | - | 495 W/m² | - |
| 1777929502 | 26.67° C | 61% | 1015.7 hPa | 0 mm | - | 656 W/m² | - |
| 1777929197 | 26.67° C | 59% | 1015.7 hPa | 0 mm | - | 207 W/m² | - |
| 1777928895 | 27.22° C | 58% | 1015.9 hPa | 0 mm | - | 305 W/m² | - |
| 1777928592 | 27.78° C | 57% | 1015.9 hPa | 0 mm | - | 440 W/m² | - |
| 1777928289 | 28.33° C | 57% | 1016 hPa | 0 mm | - | 223 W/m² | - |
| 1777927987 | 27.78° C | 58% | 1016 hPa | 0 mm | - | 633 W/m² | - |
| 1777927685 | 27.22° C | 58% | 1016.2 hPa | 0 mm | - | 478 W/m² | - |
| 1777927383 | 27.22° C | 58% | 1016.1 hPa | 0 mm | - | 299 W/m² | - |
| 1777927082 | 28.33° C | 55% | 1016.3 hPa | 0 mm | - | 241 W/m² | - |
| 1777926778 | 28.89° C | 57% | 1016.2 hPa | 0 mm | - | 707 W/m² | - |
| 1777926473 | 28.33° C | 54% | 1016.2 hPa | 0 mm | - | 634 W/m² | - |
| 1777926171 | 28.33° C | 55% | 1016.5 hPa | 0 mm | - | 721 W/m² | - |
| 1777925867 | 28.33° C | 54% | 1016.8 hPa | 0 mm | - | 451 W/m² | - |
| 1777925564 | 28.33° C | 54% | 1017 hPa | 0 mm | - | 716 W/m² | - |
| 1777925263 | 27.78° C | 56% | 1016.9 hPa | 0 mm | - | 687 W/m² | - |
| 1777924958 | 28.33° C | 53% | 1016.8 hPa | 0 mm | - | 320 W/m² | - |
| 1777924655 | 28.33° C | 55% | 1016.9 hPa | 0 mm | - | 771 W/m² | - |
* Rain latest hour (hover to see other rain measurements)
** Current wind speed in m/s (hover to see current wind gust speed)